DW3733 Luzzi (cosenza) IT current weather conditions

sailwx.info

Wind from 026 at 2 knots gusting 5

Air temperature 18.3° C
Dewpoint 6.2° C

Last reported at 2014-Oct-24 14:13 UTC.
Time now 2014-Oct-24 15:29 UTC

Location: N 39°27' E 016°16'.
View on Google Maps.

See reports from other nearby stations

  
Tides and Currents Weather Stations Pressure Air Temp Water Temp Dewpoint Dewpoint Depression Visibility Wind Speed Wind Dir Waves Ship Positions
date/time (UTC)wind fromknots sea level pressurealtimeterstation pressurevisibilityair tempwater tempwave heightnotes
2014-Oct-24 14:13 026 2 gusting 5 18.3
2014-Oct-24 14:03 330 1 gusting 5 17.8
2014-Oct-24 13:53 042 1 gusting 4 17.8
2014-Oct-24 13:43 243 0 gusting 5 17.8
2014-Oct-24 13:33 17.8
2014-Oct-24 13:23 012 3 gusting 6 17.8
2014-Oct-24 13:13 027 2 gusting 5 17.8
2014-Oct-24 12:53 001 1 gusting 4 17.2
2014-Oct-24 12:43 164 1 gusting 5 17.2
2014-Oct-24 12:33 045 2 gusting 6 17.2
2014-Oct-24 12:23 292 0 gusting 5 17.2
2014-Oct-24 12:13 054 2 gusting 6 17.2
2014-Oct-24 12:03 041 1 gusting 2 17.2
2014-Oct-24 11:53 022 0 gusting 2 16.7
2014-Oct-24 11:43 074 0 gusting 6 16.7
2014-Oct-24 11:33 356 1 gusting 5 17.2
2014-Oct-24 11:23 083 2 gusting 5 17.2
2014-Oct-24 11:13 16.7
2014-Oct-24 11:03 346 1 gusting 5 16.7
2014-Oct-24 10:53 029 2 gusting 5 16.1
2014-Oct-24 10:43 045 1 gusting 5 16.1
2014-Oct-24 10:33 022 0 gusting 6 16.1
2014-Oct-24 10:23 331 2 gusting 6 16.7
2014-Oct-24 10:13 007 1 gusting 5 16.7
2014-Oct-24 10:03 221 0 gusting 5 16.1
2014-Oct-24 09:53 220 1 gusting 5 15.6
2014-Oct-24 09:43 315 0 gusting 4 15.0
2014-Oct-24 09:33 352 0 gusting 2 15.6
2014-Oct-24 09:23 331 0 gusting 2 15.0
2014-Oct-24 09:13 346 2 gusting 2 15.0
2014-Oct-24 09:03 153 0 gusting 2 14.4
2014-Oct-24 08:53 025 0 gusting 4 14.4
2014-Oct-24 08:43 088 0 gusting 2 13.9
2014-Oct-24 08:33 095 0 gusting 2 13.3
2014-Oct-24 08:23 142 0 gusting 2 12.8
2014-Oct-24 08:13 173 0 gusting 2 12.8
2014-Oct-24 08:03 135 0 gusting 2 11.7
2014-Oct-24 07:53 225 0 gusting 2 11.7
2014-Oct-24 07:43 109 0 gusting 2 11.7
2014-Oct-24 07:33 234 0 gusting 2 11.1
2014-Oct-24 07:23 090 10.0
2014-Oct-24 07:13 135 1 gusting 5 9.4
2014-Oct-24 07:03 200 1 gusting 4 8.9
2014-Oct-24 06:53 187 1 gusting 5 8.3
2014-Oct-24 06:43 228 2 gusting 5 8.3
2014-Oct-24 06:33 169 0 gusting 2 7.8
2014-Oct-24 06:23 058 0 gusting 2 7.8
2014-Oct-24 06:13 135 7.2
2014-Oct-24 06:03 032 6.7
2014-Oct-24 05:53 090 0 gusting 2 6.7
2014-Oct-24 05:43 090 0 gusting 2 7.2
2014-Oct-24 05:33 315 7.2
2014-Oct-24 05:23 090 0 gusting 5 7.2
2014-Oct-24 05:13 051 2 gusting 4 7.8
2014-Oct-24 05:03 045 1 gusting 2 7.2
2014-Oct-23 20:33 053 10.6
2014-Oct-23 20:23 058 2 gusting 5 10.6
2014-Oct-23 20:13 088 1 gusting 5 10.6
2014-Oct-23 20:03 045 0 gusting 2 10.6
2014-Oct-23 19:53 280 0 gusting 2 10.6
2014-Oct-23 19:43 143 0 gusting 2 10.6
2014-Oct-23 19:33 225 0 gusting 2 10.6
2014-Oct-23 19:23 090 0 gusting 2 10.6
2014-Oct-23 19:13 059 10.6
2014-Oct-23 19:03 054 0 gusting 5 11.1
2014-Oct-23 18:53 118 1 gusting 5 11.1
2014-Oct-23 18:23 259 1 gusting 2 11.7
2014-Oct-23 18:13 11.7
2014-Oct-23 18:03 225 0 gusting 2 11.7
2014-Oct-23 17:53 11.7
2014-Oct-23 17:43 343 1 gusting 4 11.7
2014-Oct-23 17:33 11.7
2014-Oct-23 17:23 315 0 gusting 4 11.7
2014-Oct-23 17:13 203 1 gusting 6 11.7
2014-Oct-23 17:03 118 2 gusting 5 11.7
2014-Oct-23 16:53 183 2 gusting 5 11.7
2014-Oct-23 16:43 208 1 gusting 5 11.7
2014-Oct-23 16:33 135 2 gusting 5 12.2
2014-Oct-23 16:23 061 1 gusting 4 12.2
2014-Oct-23 16:13 286 0 gusting 1 12.8
2014-Oct-23 16:03 12.8
2014-Oct-23 15:53 182 13.3
2014-Oct-23 15:43 063 1 gusting 4 13.3
2014-Oct-23 15:33 045 2 gusting 5 13.3
2014-Oct-23 15:23 163 1 gusting 5 13.9
2014-Oct-23 15:13 188 2 gusting 6 14.4
2014-Oct-23 15:03 197 2 gusting 6 15.0
2014-Oct-23 14:53 180 2 gusting 7 15.0
2014-Oct-23 14:43 269 1 gusting 6 14.4
2014-Oct-23 14:33 058 0 gusting 2 13.9
2014-Oct-23 14:23 352 0 gusting 2 13.9
2014-Oct-23 14:13 14.4
2014-Oct-23 14:03 322 1 gusting 6 16.1
2014-Oct-23 13:53 046 4 gusting 11 16.7
2014-Oct-23 13:43 225 4 gusting 7 17.8
2014-Oct-23 13:33 291 2 gusting 6 17.8
2014-Oct-23 13:23 311 1 gusting 5 17.8
2014-Oct-23 13:13 279 2 gusting 7 17.8
2014-Oct-23 13:03 239 6 gusting 11 17.8
2014-Oct-23 12:53 264 5 gusting 8 18.3
2014-Oct-23 12:43 180 2 gusting 5 18.3
2014-Oct-23 12:33 180 0 gusting 5 18.3
2014-Oct-23 12:23 225 2 gusting 6 18.9
2014-Oct-23 12:13 036 2 gusting 6 18.9
2014-Oct-23 12:03 290 2 gusting 8 18.3
2014-Oct-23 11:53 302 3 gusting 11 18.3
2014-Oct-23 11:43 190 6 gusting 11 17.8
2014-Oct-23 11:33 011 3 gusting 8 17.8
2014-Oct-23 11:23 180 4 gusting 7 17.8
2014-Oct-23 11:13 138 4 gusting 8 17.8
2014-Oct-23 11:03 225 5 gusting 11 17.2
2014-Oct-23 10:53 285 3 gusting 8 17.8
2014-Oct-23 10:43 207 4 gusting 8 17.8
2014-Oct-23 10:33 213 2 gusting 10 17.8
2014-Oct-23 10:23 098 1 gusting 7 17.8
2014-Oct-23 10:13 190 1 gusting 6 17.8
2014-Oct-23 10:03 090 0 gusting 6 17.8
2014-Oct-23 09:53 180 3 gusting 6 17.2
2014-Oct-23 09:43 332 1 gusting 6 17.2
2014-Oct-23 09:33 180 1 gusting 6 17.2
2014-Oct-23 09:23 298 2 gusting 6 17.2
2014-Oct-23 09:13 054 2 gusting 5 16.7
2014-Oct-23 09:03 210 0 gusting 2 16.7
2014-Oct-23 08:53 316 1 gusting 6 16.7
2014-Oct-23 08:43 180 1 gusting 4 16.7
2014-Oct-23 08:33 15.6
2014-Oct-23 08:23 012 1 gusting 4 15.0
2014-Oct-23 08:13 142 1 gusting 5 14.4
2014-Oct-23 08:03 213 1 gusting 6 14.4
2014-Oct-23 07:53 286 0 gusting 2 13.9
2014-Oct-23 07:43 149 1 gusting 5 12.8
2014-Oct-23 07:33 191 1 gusting 5 12.2
2014-Oct-23 07:23 215 2 gusting 7 11.7
2014-Oct-23 07:13 254 2 gusting 6 11.1
2014-Oct-23 07:03 200 1 gusting 6 10.6
2014-Oct-23 06:53 225 2 gusting 5 10.6
2014-Oct-23 06:43 180 0 gusting 4 10.0
2014-Oct-23 06:33 221 1 gusting 5 9.4
2014-Oct-23 06:23 283 0 gusting 2 8.9
2014-Oct-23 06:13 135 8.3
2014-Oct-23 06:03 133 0 gusting 2 8.3
2014-Oct-23 05:53 299 12.2
2014-Oct-22 21:13 220 0 gusting 1 12.2
2014-Oct-22 21:03 225 0 gusting 1 12.2
2014-Oct-22 20:53 144 0 gusting 1 12.2
2014-Oct-22 20:43 225 0 gusting 2 12.2
2014-Oct-22 20:33 135 12.8
2014-Oct-22 20:23 340 0 gusting 1 12.8
2014-Oct-22 20:13 146 12.8
2014-Oct-22 20:03 13.3
2014-Oct-22 19:53 323 1 gusting 4 13.3
2014-Oct-22 19:43 296 13.3
2014-Oct-22 19:33 143 1 gusting 5 13.9
2014-Oct-22 19:23 180 2 gusting 4 13.9
2014-Oct-22 19:13 157 0 gusting 4 13.9
2014-Oct-22 19:03 277 2 gusting 6 13.9
2014-Oct-22 18:53 225 1 gusting 5 13.9
2014-Oct-22 18:43 347 0 gusting 5 14.4
2014-Oct-22 18:33 180 1 gusting 5 15.0
2014-Oct-22 18:23 152 0 gusting 5 15.0
2014-Oct-22 18:13 207 0 gusting 4 15.6
2014-Oct-22 18:03 16.1
2014-Oct-22 17:53 114 1 gusting 2 16.7
2014-Oct-22 17:43 062 0 gusting 5 16.7
2014-Oct-22 17:33 073 4 gusting 10 16.7
2014-Oct-22 17:23 100 3 gusting 13 16.7
2014-Oct-22 17:13 165 6 gusting 13 16.7
2014-Oct-22 17:03 17.8
2014-Oct-22 16:53 041 1 gusting 6 18.3
2014-Oct-22 16:43 240 1 gusting 6 18.9
2014-Oct-22 16:33 295 2 gusting 6 20.0
2014-Oct-22 16:23 180 3 gusting 6 20.0
2014-Oct-22 16:13 225 2 gusting 6 20.0
2014-Oct-22 16:03 225 2 gusting 8 20.0
2014-Oct-22 15:53 180 2 gusting 6 20.0
2014-Oct-22 15:43 168 3 gusting 6 20.0
2014-Oct-22 15:33 225 1 gusting 6 20.0
2014-Oct-22 15:23 184 1 gusting 6 20.0
2014-Oct-22 15:13 136 2 gusting 6 20.0
2014-Oct-22 15:03 100 1 gusting 6 20.0